Time,TemperatureF,DewpointF,PressureIn,WindDirection,WindDirectionDegrees,WindSpeedMPH,WindSpeedGustMPH,Humidity,HourlyPrecipIn,Conditions,Clouds,dailyrainin,SoftwareType,DateUTC
2013-08-15 00:03:00,61.7,37.1,30.20,North,-999,0.0,0.0,40,0.00,,,-99.99,WeatherLink 6.0.3,2013-08-15 05:03:00,
2013-08-15 00:05:00,61.5,36.9,30.20,North,-999,0.0,0.0,40,0.00,,,-99.99,WeatherLink 6.0.3,2013-08-15 05:05:00,
2013-08-15 00:10:00,61.4,36.8,30.20,East,90,0.0,0.0,40,0.00,,,0.00,Wunderground v.1.15,2013-08-15 05:10:00,
2013-08-15 00:15:00,61.3,36.1,30.20,East,90,0.0,0.0,39,0.00,,,0.00,Wunderground v.1.15,2013-08-15 05:15:00,
2013-08-15 00:20:00,61.2,36.0,30.20,East,90,0.0,0.0,39,0.00,,,0.00,Wunderground v.1.15,2013-08-15 05:20:00,
2013-08-15 00:25:00,61.1,35.9,30.20,East,90,0.0,0.0,39,0.00,,,0.00,Wunderground v.1.15,2013-08-15 05:25:00,
2013-08-15 00:30:00,61.0,35.8,30.20,East,90,0.0,0.0,39,0.00,,,0.00,Wunderground v.1.15,2013-08-15 05:30:00,
2013-08-15 00:35:00,60.9,35.1,30.20,North,-999,0.0,0.0,38,0.00,,,-99.99,WeatherLink 6.0.3,2013-08-15 05:35:00,
2013-08-15 00:39:00,60.9,35.1,30.20,East,90,0.0,0.0,38,0.00,,,0.00,Wunderground v.1.15,2013-08-15 05:39:00,
2013-08-15 00:44:00,60.8,35.0,30.20,East,90,0.0,0.0,38,0.00,,,0.00,Wunderground v.1.15,2013-08-15 05:44:00,
2013-08-15 00:49:00,60.6,34.8,30.20,East,90,0.0,0.0,38,0.00,,,0.00,Wunderground v.1.15,2013-08-15 05:49:00,
2013-08-15 00:50:00,60.6,34.8,30.20,North,-999,0.0,0.0,38,0.00,,,-99.99,WeatherLink 6.0.3,2013-08-15 05:50:00,
2013-08-15 00:54:00,60.5,34.7,30.20,East,90,0.0,0.0,38,0.00,,,0.00,Wunderground v.1.15,2013-08-15 05:54:00,
2013-08-15 01:00:00,60.4,34.7,30.20,East,90,0.0,0.0,38,0.00,,,0.00,Wunderground v.1.15,2013-08-15 06:00:00,
2013-08-15 01:05:00,60.4,34.7,30.20,East,90,0.0,0.0,38,0.00,,,0.00,Wunderground v.1.15,2013-08-15 06:05:00,
2013-08-15 01:10:00,60.4,34.0,30.20,East,90,0.0,0.0,37,0.00,,,0.00,Wunderground v.1.15,2013-08-15 06:10:00,
2013-08-15 01:15:00,60.4,34.0,30.20,East,90,0.0,0.0,37,0.00,,,0.00,Wunderground v.1.15,2013-08-15 06:15:00,
2013-08-15 01:20:00,60.4,34.0,30.19,East,90,0.0,0.0,37,0.00,,,0.00,Wunderground v.1.15,2013-08-15 06:20:00,
2013-08-15 01:25:00,60.4,34.0,30.19,East,90,0.0,0.0,37,0.00,,,0.00,Wunderground v.1.15,2013-08-15 06:25:00,
2013-08-15 01:30:00,60.4,34.0,30.19,East,90,0.0,0.0,37,0.00,,,0.00,Wunderground v.1.15,2013-08-15 06:30:00,
2013-08-15 01:35:00,60.1,34.4,30.19,North,-999,0.0,0.0,38,0.00,,,-99.99,WeatherLink 6.0.3,2013-08-15 06:35:00,
2013-08-15 01:39:00,60.1,34.4,30.19,East,90,0.0,0.0,38,0.00,,,0.00,Wunderground v.1.15,2013-08-15 06:39:00,
2013-08-15 01:44:00,60.0,34.3,30.19,East,90,0.0,0.0,38,0.00,,,0.00,Wunderground v.1.15,2013-08-15 06:44:00,
2013-08-15 01:49:00,60.0,33.6,30.19,East,90,0.0,0.0,37,0.00,,,0.00,Wunderground v.1.15,2013-08-15 06:49:00,
2013-08-15 01:50:00,60.0,33.6,30.19,North,-999,0.0,0.0,37,0.00,,,-99.99,WeatherLink 6.0.3,2013-08-15 06:50:00,
2013-08-15 01:54:00,60.0,33.6,30.19,East,90,0.0,0.0,37,0.00,,,0.00,Wunderground v.1.15,2013-08-15 06:54:00,
2013-08-15 01:59:00,60.0,33.6,30.19,East,90,0.0,0.0,37,0.00,,,0.00,Wunderground v.1.15,2013-08-15 06:59:00,
2013-08-15 02:05:00,59.8,33.5,30.19,North,-999,0.0,0.0,37,0.00,,,-99.99,WeatherLink 6.0.3,2013-08-15 07:05:00,
2013-08-15 02:09:00,59.8,33.5,30.19,East,90,0.0,0.0,37,0.00,,,0.00,Wunderground v.1.15,2013-08-15 07:09:00,
2013-08-15 02:15:00,59.6,33.3,30.19,East,90,0.0,0.0,37,0.00,,,0.00,Wunderground v.1.15,2013-08-15 07:15:00,
2013-08-15 02:20:00,59.6,33.3,30.18,East,90,0.0,0.0,37,0.00,,,0.00,Wunderground v.1.15,2013-08-15 07:20:00,
2013-08-15 02:25:00,59.4,33.1,30.19,East,90,0.0,0.0,37,0.00,,,0.00,Wunderground v.1.15,2013-08-15 07:25:00,
2013-08-15 02:30:00,59.2,32.9,30.18,East,90,0.0,0.0,37,0.00,,,0.00,Wunderground v.1.15,2013-08-15 07:30:00,
2013-08-15 02:35:00,59.2,32.9,30.18,East,90,0.0,0.0,37,0.00,,,0.00,Wunderground v.1.15,2013-08-15 07:35:00,
2013-08-15 02:40:00,59.2,32.9,30.18,East,90,0.0,0.0,37,0.00,,,0.00,Wunderground v.1.15,2013-08-15 07:40:00,
2013-08-15 02:45:00,59.4,33.1,30.18,East,90,0.0,0.0,37,0.00,,,0.00,Wunderground v.1.15,2013-08-15 07:45:00,
2013-08-15 02:50:00,59.5,33.2,30.18,East,90,0.0,0.0,37,0.00,,,0.00,Wunderground v.1.15,2013-08-15 07:50:00,
2013-08-15 02:55:00,59.6,33.3,30.18,East,90,0.0,0.0,37,0.00,,,0.00,Wunderground v.1.15,2013-08-15 07:55:00,
2013-08-15 03:00:00,59.7,33.4,30.17,East,90,0.0,0.0,37,0.00,,,0.00,Wunderground v.1.15,2013-08-15 08:00:00,
2013-08-15 03:05:00,59.7,33.4,30.18,North,-999,0.0,0.0,37,0.00,,,-99.99,WeatherLink 6.0.3,2013-08-15 08:05:00,
2013-08-15 03:10:00,59.7,33.4,30.18,East,90,0.0,0.0,37,0.00,,,0.00,Wunderground v.1.15,2013-08-15 08:10:00,
2013-08-15 03:15:00,59.6,33.3,30.18,East,90,0.0,0.0,37,0.00,,,0.00,Wunderground v.1.15,2013-08-15 08:15:00,
2013-08-15 03:20:00,59.5,33.2,30.18,East,90,0.0,0.0,37,0.00,,,0.00,Wunderground v.1.15,2013-08-15 08:20:00,
2013-08-15 03:25:00,59.4,33.1,30.18,East,90,0.0,0.0,37,0.00,,,0.00,Wunderground v.1.15,2013-08-15 08:25:00,
2013-08-15 03:30:00,59.4,33.1,30.18,East,90,0.0,0.0,37,0.00,,,0.00,Wunderground v.1.15,2013-08-15 08:30:00,
2013-08-15 03:35:00,59.4,33.1,30.18,East,90,0.0,0.0,37,0.00,,,0.00,Wunderground v.1.15,2013-08-15 08:35:00,
2013-08-15 03:40:00,59.3,33.0,30.18,East,90,0.0,0.0,37,0.00,,,0.00,Wunderground v.1.15,2013-08-15 08:40:00,
2013-08-15 03:45:00,59.1,32.8,30.18,East,90,0.0,0.0,37,0.00,,,0.00,Wunderground v.1.15,2013-08-15 08:45:00,
2013-08-15 03:50:00,59.0,32.7,30.19,North,-999,0.0,0.0,37,0.00,,,-99.99,WeatherLink 6.0.3,2013-08-15 08:50:00,
2013-08-15 03:55:00,59.0,32.7,30.19,East,90,0.0,0.0,37,0.00,,,0.00,Wunderground v.1.15,2013-08-15 08:55:00,
2013-08-15 04:00:00,59.0,32.7,30.19,East,90,0.0,0.0,37,0.00,,,0.00,Wunderground v.1.15,2013-08-15 09:00:00,
2013-08-15 04:05:00,59.0,32.7,30.19,East,90,0.0,0.0,37,0.00,,,0.00,Wunderground v.1.15,2013-08-15 09:05:00,
2013-08-15 04:10:00,59.0,32.7,30.19,East,90,0.0,0.0,37,0.00,,,0.00,Wunderground v.1.15,2013-08-15 09:10:00,
2013-08-15 04:15:00,59.0,32.7,30.19,East,90,0.0,0.0,37,0.00,,,0.00,Wunderground v.1.15,2013-08-15 09:15:00,
2013-08-15 04:20:00,59.0,32.7,30.19,East,90,0.0,0.0,37,0.00,,,0.00,Wunderground v.1.15,2013-08-15 09:20:00,
2013-08-15 04:25:00,59.0,32.7,30.19,East,90,0.0,0.0,37,0.00,,,0.00,Wunderground v.1.15,2013-08-15 09:25:00,
2013-08-15 04:30:00,59.0,32.7,30.19,East,90,0.0,0.0,37,0.00,,,0.00,Wunderground v.1.15,2013-08-15 09:30:00,
2013-08-15 04:35:00,59.0,32.7,30.19,East,90,0.0,0.0,37,0.00,,,0.00,Wunderground v.1.15,2013-08-15 09:35:00,
2013-08-15 04:45:00,59.0,32.7,30.19,East,90,0.0,0.0,37,0.00,,,0.00,Wunderground v.1.15,2013-08-15 09:45:00,
2013-08-15 04:50:00,59.0,32.7,30.19,East,90,0.0,0.0,37,0.00,,,0.00,Wunderground v.1.15,2013-08-15 09:50:00,
2013-08-15 04:55:00,59.0,32.7,30.19,East,90,0.0,0.0,37,0.00,,,0.00,Wunderground v.1.15,2013-08-15 09:55:00,
2013-08-15 05:03:00,59.0,32.7,30.19,North,-999,0.0,0.0,37,0.00,,,-99.99,WeatherLink 6.0.3,2013-08-15 10:03:00,
2013-08-15 05:05:00,59.0,32.7,30.19,North,-999,0.0,0.0,37,0.01,,,-99.99,WeatherLink 6.0.3,2013-08-15 10:05:00,
2013-08-15 05:10:00,59.0,32.7,30.20,East,90,0.0,0.0,37,0.00,,,0.01,Wunderground v.1.15,2013-08-15 10:10:00,
2013-08-15 05:15:00,59.0,32.7,30.20,East,90,0.0,0.0,37,0.00,,,0.01,Wunderground v.1.15,2013-08-15 10:15:00,
2013-08-15 05:20:00,59.0,32.7,30.20,East,90,0.0,0.0,37,0.00,,,0.01,Wunderground v.1.15,2013-08-15 10:20:00,
2013-08-15 05:30:00,58.9,32.7,30.19,East,90,0.0,0.0,37,0.00,,,0.01,Wunderground v.1.15,2013-08-15 10:30:00,
2013-08-15 05:35:00,58.9,32.7,30.19,East,90,0.0,0.0,37,0.00,,,0.01,Wunderground v.1.15,2013-08-15 10:35:00,
2013-08-15 05:40:00,59.0,32.7,30.19,East,90,0.0,0.0,37,0.00,,,0.01,Wunderground v.1.15,2013-08-15 10:40:00,
2013-08-15 05:45:00,59.0,32.7,30.19,East,90,0.0,0.0,37,0.00,,,0.01,Wunderground v.1.15,2013-08-15 10:45:00,
2013-08-15 05:50:00,59.0,33.4,30.20,East,90,0.0,0.0,38,0.00,,,0.01,Wunderground v.1.15,2013-08-15 10:50:00,
2013-08-15 05:55:00,58.9,33.3,30.20,East,90,0.0,0.0,38,0.00,,,0.01,Wunderground v.1.15,2013-08-15 10:55:00,
2013-08-15 06:00:00,58.6,33.0,30.20,East,90,0.0,0.0,38,0.00,,,0.01,Wunderground v.1.15,2013-08-15 11:00:00,
2013-08-15 06:05:00,58.4,32.9,30.20,East,90,0.0,0.0,38,0.00,,,0.01,Wunderground v.1.15,2013-08-15 11:05:00,
2013-08-15 06:10:00,58.2,32.7,30.20,East,91,0.0,0.0,38,0.00,,,0.01,Wunderground v.1.15,2013-08-15 11:10:00,
2013-08-15 06:15:00,58.3,32.8,30.20,East,92,0.0,0.0,38,0.00,,,0.01,Wunderground v.1.15,2013-08-15 11:15:00,
2013-08-15 06:20:00,58.4,32.9,30.19,North,-999,0.0,0.0,38,0.00,,,-99.99,WeatherLink 6.0.3,2013-08-15 11:20:00,
2013-08-15 06:25:00,58.4,32.2,30.20,East,92,0.0,0.0,37,0.00,,,0.01,Wunderground v.1.15,2013-08-15 11:25:00,
2013-08-15 06:30:00,58.5,32.3,30.20,East,93,0.0,0.0,37,0.00,,,0.01,Wunderground v.1.15,2013-08-15 11:30:00,
2013-08-15 06:35:00,58.5,32.3,30.21,East,90,0.0,1.0,37,0.00,,,-99.99,WeatherLink 6.0.3,2013-08-15 11:35:00,
2013-08-15 06:40:00,58.5,32.3,30.20,East,93,0.0,0.0,37,0.00,,,0.01,Wunderground v.1.15,2013-08-15 11:40:00,
2013-08-15 06:48:00,58.5,32.3,30.21,North,-999,0.0,0.0,37,0.00,,,-99.99,WeatherLink 6.0.3,2013-08-15 11:48:00,
2013-08-15 06:50:00,58.5,32.3,30.21,North,-999,0.0,0.0,37,0.00,,,-99.99,WeatherLink 6.0.3,2013-08-15 11:50:00,
2013-08-15 06:55:00,58.5,32.3,30.21,East,94,0.0,0.0,37,0.00,,,0.01,Wunderground v.1.15,2013-08-15 11:55:00,
2013-08-15 07:00:00,58.5,33.0,30.21,East,94,0.0,0.0,38,0.00,,,0.01,Wunderground v.1.15,2013-08-15 12:00:00,
2013-08-15 07:05:00,58.7,32.5,30.21,East,96,0.0,0.0,37,0.00,,,0.01,Wunderground v.1.15,2013-08-15 12:05:00,
2013-08-15 07:10:00,59.0,32.7,30.21,East,96,0.0,0.0,37,0.00,,,0.01,Wunderground v.1.15,2013-08-15 12:10:00,
2013-08-15 07:15:00,59.0,32.7,30.21,East,96,0.0,0.0,37,0.00,,,0.01,Wunderground v.1.15,2013-08-15 12:15:00,
2013-08-15 07:20:00,59.0,32.7,30.21,East,96,0.0,0.0,37,0.00,,,0.01,Wunderground v.1.15,2013-08-15 12:20:00,
2013-08-15 07:25:00,59.5,33.9,30.22,East,96,0.0,0.0,38,0.00,,,0.01,Wunderground v.1.15,2013-08-15 12:25:00,
2013-08-15 07:30:00,59.8,34.1,30.22,East,96,0.0,0.0,38,0.00,,,0.01,Wunderground v.1.15,2013-08-15 12:30:00,
2013-08-15 07:35:00,60.1,34.4,30.22,East,90,0.0,1.0,38,0.00,,,-99.99,WeatherLink 6.0.3,2013-08-15 12:35:00,
2013-08-15 07:40:00,60.4,35.3,30.22,East,97,0.0,0.0,39,0.00,,,0.01,Wunderground v.1.15,2013-08-15 12:40:00,
2013-08-15 07:45:00,60.8,35.7,30.22,East,96,0.0,0.0,39,0.00,,,0.01,Wunderground v.1.15,2013-08-15 12:45:00,
2013-08-15 07:50:00,61.3,36.8,30.22,East,97,0.0,0.0,40,0.00,,,0.01,Wunderground v.1.15,2013-08-15 12:50:00,
2013-08-15 07:55:00,61.7,37.7,30.22,East,101,0.0,0.0,41,0.00,,,0.01,Wunderground v.1.15,2013-08-15 12:55:00,
2013-08-15 08:00:00,62.1,38.7,30.22,East,101,0.0,0.0,42,0.00,,,0.01,Wunderground v.1.15,2013-08-15 13:00:00,
2013-08-15 08:05:00,62.6,40.4,30.22,ESE,112,0.0,5.0,44,0.00,,,-99.99,WeatherLink 6.0.3,2013-08-15 13:05:00,
2013-08-15 08:10:00,62.7,41.6,30.22,ESE,115,0.0,0.0,46,0.00,,,0.01,Wunderground v.1.15,2013-08-15 13:10:00,
2013-08-15 08:15:00,63.0,43.5,30.22,ESE,117,0.0,0.0,49,0.00,,,0.01,Wunderground v.1.15,2013-08-15 13:15:00,
2013-08-15 08:20:00,63.3,44.9,30.23,ESE,117,0.0,0.0,51,0.00,,,0.01,Wunderground v.1.15,2013-08-15 13:20:00,
2013-08-15 08:25:00,63.7,46.7,30.23,ESE,119,0.0,0.0,54,0.00,,,0.01,Wunderground v.1.15,2013-08-15 13:25:00,
2013-08-15 08:30:00,64.1,47.6,30.23,ESE,120,0.0,0.0,55,0.00,,,0.01,Wunderground v.1.15,2013-08-15 13:30:00,
2013-08-15 08:35:00,64.8,48.2,30.23,ESE,119,0.0,0.0,55,0.00,,,0.01,Wunderground v.1.15,2013-08-15 13:35:00,
2013-08-15 08:40:00,65.0,49.9,30.23,ESE,121,0.0,0.0,58,0.00,,,0.01,Wunderground v.1.15,2013-08-15 13:40:00,
2013-08-15 08:48:00,65.0,49.9,30.23,North,-999,0.0,0.0,58,0.00,,,-99.99,WeatherLink 6.0.3,2013-08-15 13:48:00,
2013-08-15 08:50:00,65.2,51.4,30.23,North,-999,0.0,0.0,61,0.00,,,-99.99,WeatherLink 6.0.3,2013-08-15 13:50:00,
2013-08-15 08:55:00,65.4,52.9,30.23,SE,126,0.0,0.0,64,0.00,,,0.01,Wunderground v.1.15,2013-08-15 13:55:00,
2013-08-15 09:00:00,65.6,53.5,30.23,SE,138,1.0,1.0,65,0.00,,,0.01,Wunderground v.1.15,2013-08-15 14:00:00,
2013-08-15 09:05:00,65.8,53.3,30.23,SE,146,0.0,1.0,64,0.00,,,0.01,Wunderground v.1.15,2013-08-15 14:05:00,
2013-08-15 09:10:00,66.0,53.9,30.22,SE,146,0.0,0.0,65,0.00,,,0.01,Wunderground v.1.15,2013-08-15 14:10:00,
2013-08-15 09:15:00,66.3,54.2,30.22,SSE,148,0.0,0.0,65,0.00,,,0.01,Wunderground v.1.15,2013-08-15 14:15:00,
2013-08-15 09:20:00,66.7,54.6,30.22,SE,138,0.0,3.0,65,0.00,,,0.01,Wunderground v.1.15,2013-08-15 14:20:00,
2013-08-15 09:25:00,66.8,55.1,30.23,SE,138,1.0,3.0,66,0.00,,,0.01,Wunderground v.1.15,2013-08-15 14:25:00,
2013-08-15 09:30:00,66.5,54.8,30.22,South,172,2.0,2.0,66,0.00,,,0.01,Wunderground v.1.15,2013-08-15 14:30:00,
2013-08-15 09:35:00,66.8,55.1,30.22,SE,134,2.0,2.0,66,0.00,,,0.01,Wunderground v.1.15,2013-08-15 14:35:00,
2013-08-15 09:40:00,67.2,55.5,30.22,SE,134,1.0,1.0,66,0.00,,,0.01,Wunderground v.1.15,2013-08-15 14:40:00,
2013-08-15 09:49:00,67.3,55.5,30.22,SE,135,0.0,6.0,66,0.00,,,-99.99,WeatherLink 6.0.3,2013-08-15 14:49:00,
2013-08-15 09:50:00,67.7,55.9,30.22,SSE,157,0.0,6.0,66,0.00,,,-99.99,WeatherLink 6.0.3,2013-08-15 14:50:00,
2013-08-15 09:55:00,67.7,55.9,30.22,South,172,1.0,5.0,66,0.00,,,0.01,Wunderground v.1.15,2013-08-15 14:55:00,
2013-08-15 10:00:00,67.9,56.1,30.22,SSE,150,2.0,7.0,66,0.00,,,0.01,Wunderground v.1.15,2013-08-15 15:00:00,
2013-08-15 10:05:00,68.3,56.5,30.22,SSE,157,1.0,4.0,66,0.00,,,-99.99,WeatherLink 6.0.3,2013-08-15 15:05:00,
2013-08-15 10:10:00,68.4,56.6,30.23,South,171,1.0,1.0,66,0.00,,,0.01,Wunderground v.1.15,2013-08-15 15:10:00,
2013-08-15 10:15:00,68.5,56.7,30.22,SSE,167,1.0,1.0,66,0.00,,,0.01,Wunderground v.1.15,2013-08-15 15:15:00,
2013-08-15 10:20:00,68.7,56.9,30.23,South,180,1.0,6.0,66,0.00,,,-99.99,WeatherLink 6.0.3,2013-08-15 15:20:00,
2013-08-15 10:25:00,68.9,57.1,30.23,SSE,162,1.0,1.0,66,0.00,,,0.01,Wunderground v.1.15,2013-08-15 15:25:00,
2013-08-15 10:30:00,69.0,57.2,30.23,SSE,165,0.0,0.0,66,0.00,,,0.01,Wunderground v.1.15,2013-08-15 15:30:00,
2013-08-15 10:35:00,69.7,57.8,30.22,SSE,162,0.0,0.0,66,0.00,,,0.01,Wunderground v.1.15,2013-08-15 15:35:00,
2013-08-15 10:40:00,70.3,58.4,30.22,SSE,148,0.0,3.0,66,0.00,,,0.01,Wunderground v.1.15,2013-08-15 15:40:00,
2013-08-15 10:45:00,70.4,58.1,30.22,SE,141,1.0,3.0,65,0.00,,,0.01,Wunderground v.1.15,2013-08-15 15:45:00,
2013-08-15 10:50:00,70.1,57.8,30.22,SSE,160,1.0,1.0,65,0.00,,,0.01,Wunderground v.1.15,2013-08-15 15:50:00,
2013-08-15 10:55:00,70.0,57.7,30.22,SSE,161,1.0,3.0,65,0.00,,,0.01,Wunderground v.1.15,2013-08-15 15:55:00,
2013-08-15 11:00:00,70.2,58.3,30.22,SSE,163,1.0,1.0,66,0.00,,,0.01,Wunderground v.1.15,2013-08-15 16:00:00,
2013-08-15 11:05:00,70.5,57.7,30.22,SSE,157,0.0,4.0,64,0.00,,,-99.99,WeatherLink 6.0.3,2013-08-15 16:05:00,
2013-08-15 11:10:00,70.7,58.4,30.22,SSE,167,0.0,4.0,65,0.00,,,0.01,Wunderground v.1.15,2013-08-15 16:10:00,
2013-08-15 11:18:00,70.5,58.2,30.22,SSE,157,1.0,5.0,65,0.00,,,-99.99,WeatherLink 6.0.3,2013-08-15 16:18:00,
2013-08-15 11:20:00,70.8,58.0,30.21,South,180,0.0,1.0,64,0.00,,,-99.99,WeatherLink 6.0.3,2013-08-15 16:20:00,
2013-08-15 11:25:00,71.0,58.2,30.21,South,172,0.0,1.0,64,0.00,,,0.01,Wunderground v.1.15,2013-08-15 16:25:00,
2013-08-15 11:33:00,71.1,58.3,30.21,South,180,0.0,1.0,64,0.00,,,-99.99,WeatherLink 6.0.3,2013-08-15 16:33:00,
2013-08-15 11:35:00,71.4,58.1,30.21,North,-999,0.0,0.0,63,0.00,,,-99.99,WeatherLink 6.0.3,2013-08-15 16:35:00,
2013-08-15 11:40:00,72.2,59.3,30.21,SSE,163,0.0,0.0,64,0.00,,,0.01,Wunderground v.1.15,2013-08-15 16:40:00,
2013-08-15 11:45:00,72.2,58.9,30.21,SSE,163,0.0,0.0,63,0.00,,,0.01,Wunderground v.1.15,2013-08-15 16:45:00,
2013-08-15 11:50:00,72.7,58.9,30.21,SSE,163,0.0,0.0,62,0.00,,,0.01,Wunderground v.1.15,2013-08-15 16:50:00,
2013-08-15 11:55:00,72.7,58.9,30.21,SSE,163,0.0,0.0,62,0.00,,,0.01,Wunderground v.1.15,2013-08-15 16:55:00,
2013-08-15 12:00:00,73.1,59.3,30.21,SSE,163,0.0,1.0,62,0.00,,,0.01,Wunderground v.1.15,2013-08-15 17:00:00,
2013-08-15 12:05:00,73.6,58.9,30.20,North,-999,0.0,0.0,60,0.00,,,-99.99,WeatherLink 6.0.3,2013-08-15 17:05:00,
2013-08-15 12:10:00,73.7,59.4,30.20,SSE,163,0.0,0.0,61,0.00,,,0.01,Wunderground v.1.15,2013-08-15 17:10:00,
2013-08-15 12:15:00,73.3,59.0,30.20,SSE,163,0.0,0.0,61,0.00,,,0.01,Wunderground v.1.15,2013-08-15 17:15:00,
2013-08-15 12:20:00,73.4,59.1,30.20,North,-999,0.0,0.0,61,0.00,,,-99.99,WeatherLink 6.0.3,2013-08-15 17:20:00,
2013-08-15 12:25:00,73.9,58.7,30.20,SSE,163,0.0,0.0,59,0.00,,,0.01,Wunderground v.1.15,2013-08-15 17:25:00,
2013-08-15 12:33:00,74.1,58.4,30.20,North,-999,0.0,0.0,58,0.00,,,-99.99,WeatherLink 6.0.3,2013-08-15 17:33:00,
2013-08-15 12:35:00,75.3,60.5,30.19,SSE,157,0.0,1.0,60,0.00,,,-99.99,WeatherLink 6.0.3,2013-08-15 17:35:00,
2013-08-15 12:40:00,75.3,60.9,30.19,SE,128,0.0,0.0,61,0.00,,,0.01,Wunderground v.1.15,2013-08-15 17:40:00,
2013-08-15 12:45:00,75.0,59.7,30.19,SE,128,1.0,1.0,59,0.00,,,0.01,Wunderground v.1.15,2013-08-15 17:45:00,
2013-08-15 12:50:00,74.7,59.4,30.19,SE,135,1.0,4.0,59,0.00,,,-99.99,WeatherLink 6.0.3,2013-08-15 17:50:00,
2013-08-15 12:55:00,74.3,59.5,30.19,SE,146,0.0,1.0,60,0.00,,,0.01,Wunderground v.1.15,2013-08-15 17:55:00,
2013-08-15 13:00:00,74.2,59.4,30.19,SSE,151,0.0,0.0,60,0.00,,,0.01,Wunderground v.1.15,2013-08-15 18:00:00,
2013-08-15 13:05:00,74.6,59.8,30.18,North,-999,0.0,0.0,60,0.00,,,-99.99,WeatherLink 6.0.3,2013-08-15 18:05:00,
2013-08-15 13:10:00,75.3,60.9,30.18,SSE,150,0.0,0.0,61,0.00,,,0.01,Wunderground v.1.15,2013-08-15 18:10:00,
2013-08-15 13:18:00,75.5,61.1,30.18,SSE,157,0.0,1.0,61,0.00,,,-99.99,WeatherLink 6.0.3,2013-08-15 18:18:00,
2013-08-15 13:20:00,75.9,60.1,30.18,East,90,2.0,8.0,58,0.00,,,-99.99,WeatherLink 6.0.3,2013-08-15 18:20:00,
2013-08-15 13:25:00,75.7,59.4,30.17,East,87,3.0,3.0,57,0.00,,,0.01,Wunderground v.1.15,2013-08-15 18:25:00,
2013-08-15 13:30:00,75.8,59.0,30.17,East,82,2.0,2.0,56,0.00,,,0.01,Wunderground v.1.15,2013-08-15 18:30:00,
2013-08-15 13:35:00,76.3,58.4,30.17,East,82,0.0,2.0,54,0.00,,,0.01,Wunderground v.1.15,2013-08-15 18:35:00,
2013-08-15 13:40:00,76.9,60.0,30.17,East,82,0.0,0.0,56,0.00,,,0.01,Wunderground v.1.15,2013-08-15 18:40:00,
2013-08-15 13:45:00,76.8,59.9,30.17,ENE,78,1.0,1.0,56,0.00,,,0.01,Wunderground v.1.15,2013-08-15 18:45:00,
2013-08-15 13:50:00,76.9,60.5,30.17,ENE,67,0.0,1.0,57,0.00,,,-99.99,WeatherLink 6.0.3,2013-08-15 18:50:00,
2013-08-15 13:55:00,76.8,58.9,30.16,ENE,75,0.0,0.0,54,0.00,,,0.01,Wunderground v.1.15,2013-08-15 18:55:00,
2013-08-15 14:00:00,76.4,61.0,30.16,ENE,78,0.0,0.0,59,0.00,,,0.01,Wunderground v.1.15,2013-08-15 19:00:00,
2013-08-15 14:05:00,75.8,60.9,30.16,East,90,0.0,1.0,60,0.00,,,-99.99,WeatherLink 6.0.3,2013-08-15 19:05:00,
2013-08-15 14:10:00,75.8,60.4,30.16,East,101,0.0,0.0,59,0.00,,,0.01,Wunderground v.1.15,2013-08-15 19:10:00,
2013-08-15 14:15:00,76.2,60.3,30.16,ESE,102,0.0,0.0,58,0.00,,,0.01,Wunderground v.1.15,2013-08-15 19:15:00,
2013-08-15 14:20:00,76.9,60.5,30.16,East,90,0.0,1.0,57,0.00,,,-99.99,WeatherLink 6.0.3,2013-08-15 19:20:00,
2013-08-15 14:25:00,77.0,59.6,30.16,East,100,1.0,5.0,55,0.00,,,0.01,Wunderground v.1.15,2013-08-15 19:25:00,
2013-08-15 14:30:00,76.7,58.8,30.16,East,96,2.0,2.0,54,0.00,,,0.01,Wunderground v.1.15,2013-08-15 19:30:00,
2013-08-15 14:35:00,76.5,59.1,30.16,East,96,0.0,2.0,55,0.00,,,0.01,Wunderground v.1.15,2013-08-15 19:35:00,
2013-08-15 14:40:00,76.2,58.9,30.16,East,97,0.0,0.0,55,0.00,,,0.01,Wunderground v.1.15,2013-08-15 19:40:00,
2013-08-15 14:45:00,76.5,60.6,30.16,East,96,0.0,0.0,58,0.00,,,0.01,Wunderground v.1.15,2013-08-15 19:45:00,
2013-08-15 14:50:00,76.8,59.4,30.15,ESE,112,2.0,9.0,55,0.00,,,-99.99,WeatherLink 6.0.3,2013-08-15 19:50:00,
2013-08-15 14:55:00,76.9,60.5,30.16,ESE,108,2.0,6.0,57,0.00,,,0.01,Wunderground v.1.15,2013-08-15 19:55:00,
2013-08-15 15:00:00,77.7,60.2,30.16,ENE,76,2.0,2.0,55,0.00,,,0.01,Wunderground v.1.15,2013-08-15 20:00:00,
2013-08-15 15:05:00,77.6,58.6,30.16,ENE,76,0.0,2.0,52,0.00,,,0.01,Wunderground v.1.15,2013-08-15 20:05:00,
2013-08-15 15:10:00,78.1,60.6,30.16,ENE,76,0.0,0.0,55,0.00,,,0.01,Wunderground v.1.15,2013-08-15 20:10:00,
2013-08-15 15:19:00,78.1,59.6,30.16,North,-999,0.0,0.0,53,0.00,,,-99.99,WeatherLink 6.0.3,2013-08-15 20:19:00,
2013-08-15 15:20:00,79.0,58.8,30.16,ENE,67,1.0,5.0,50,0.00,,,-99.99,WeatherLink 6.0.3,2013-08-15 20:20:00,
2013-08-15 15:25:00,78.7,59.0,30.16,ENE,74,0.0,0.0,51,0.00,,,0.01,Wunderground v.1.15,2013-08-15 20:25:00,
2013-08-15 15:30:00,78.5,61.0,30.16,ENE,74,0.0,0.0,55,0.00,,,0.01,Wunderground v.1.15,2013-08-15 20:30:00,
2013-08-15 15:35:00,78.9,60.3,30.15,ENE,67,0.0,1.0,53,0.00,,,-99.99,WeatherLink 6.0.3,2013-08-15 20:35:00,
2013-08-15 15:40:00,79.4,60.8,30.15,ENE,74,0.0,0.0,53,0.00,,,0.01,Wunderground v.1.15,2013-08-15 20:40:00,
2013-08-15 15:45:00,79.9,61.8,30.15,ENE,74,0.0,0.0,54,0.00,,,0.01,Wunderground v.1.15,2013-08-15 20:45:00,
2013-08-15 15:50:00,80.2,61.0,30.15,NE,52,0.0,0.0,52,0.00,,,0.01,Wunderground v.1.15,2013-08-15 20:50:00,
2013-08-15 15:55:00,80.3,60.5,30.14,NE,52,0.0,0.0,51,0.00,,,0.01,Wunderground v.1.15,2013-08-15 20:55:00,
2013-08-15 16:00:00,80.6,61.3,30.14,NE,52,0.0,0.0,52,0.00,,,0.01,Wunderground v.1.15,2013-08-15 21:00:00,
2013-08-15 16:05:00,80.1,61.4,30.14,North,-999,0.0,0.0,53,0.00,,,-99.99,WeatherLink 6.0.3,2013-08-15 21:05:00,
2013-08-15 16:10:00,79.6,59.9,30.13,NE,52,0.0,0.0,51,0.00,,,0.01,Wunderground v.1.15,2013-08-15 21:10:00,
2013-08-15 16:15:00,78.7,59.6,30.13,ESE,114,1.0,1.0,52,0.00,,,0.01,Wunderground v.1.15,2013-08-15 21:15:00,
2013-08-15 16:20:00,77.7,59.2,30.13,ESE,112,0.0,1.0,53,0.00,,,-99.99,WeatherLink 6.0.3,2013-08-15 21:20:00,
2013-08-15 16:25:00,77.6,60.7,30.13,ESE,115,0.0,1.0,56,0.00,,,0.01,Wunderground v.1.15,2013-08-15 21:25:00,
2013-08-15 16:30:00,77.7,60.8,30.12,ESE,112,0.0,2.0,56,0.00,,,-99.99,WeatherLink 6.0.3,2013-08-15 21:30:00,
2013-08-15 16:34:00,77.6,59.6,30.12,ESE,115,0.0,0.0,54,0.00,,,0.01,Wunderground v.1.15,2013-08-15 21:34:00,
2013-08-15 16:35:00,77.5,60.6,30.12,ESE,112,1.0,7.0,56,0.00,,,-99.99,WeatherLink 6.0.3,2013-08-15 21:35:00,
2013-08-15 16:40:00,77.5,59.5,30.12,ESE,105,1.0,1.0,54,0.00,,,0.01,Wunderground v.1.15,2013-08-15 21:40:00,
2013-08-15 16:45:00,77.7,60.8,30.12,ESE,105,0.0,1.0,56,0.00,,,0.01,Wunderground v.1.15,2013-08-15 21:45:00,
2013-08-15 16:50:00,78.1,62.1,30.12,ESE,105,0.0,0.0,58,0.00,,,0.01,Wunderground v.1.15,2013-08-15 21:50:00,
2013-08-15 16:55:00,78.4,60.9,30.12,ESE,105,0.0,0.0,55,0.00,,,0.01,Wunderground v.1.15,2013-08-15 21:55:00,
2013-08-15 17:00:00,78.5,61.5,30.12,ESE,105,0.0,0.0,56,0.00,,,0.01,Wunderground v.1.15,2013-08-15 22:00:00,
2013-08-15 17:05:00,78.3,60.8,30.12,East,90,0.0,7.0,55,0.00,,,-99.99,WeatherLink 6.0.3,2013-08-15 22:05:00,
2013-08-15 17:10:00,78.5,61.5,30.12,East,86,0.0,0.0,56,0.00,,,0.01,Wunderground v.1.15,2013-08-15 22:10:00,
2013-08-15 17:15:00,78.7,60.1,30.13,East,86,0.0,0.0,53,0.00,,,0.01,Wunderground v.1.15,2013-08-15 22:15:00,
2013-08-15 17:20:00,78.7,61.7,30.12,East,86,0.0,0.0,56,0.00,,,0.01,Wunderground v.1.15,2013-08-15 22:20:00,
2013-08-15 17:25:00,78.7,61.2,30.13,East,86,0.0,0.0,55,0.00,,,0.01,Wunderground v.1.15,2013-08-15 22:25:00,
2013-08-15 17:30:00,78.7,60.7,30.13,East,84,0.0,0.0,54,0.00,,,0.01,Wunderground v.1.15,2013-08-15 22:30:00,
2013-08-15 17:35:00,78.7,61.2,30.13,East,85,0.0,0.0,55,0.00,,,0.01,Wunderground v.1.15,2013-08-15 22:35:00,
2013-08-15 17:40:00,78.7,62.2,30.12,East,85,0.0,0.0,57,0.00,,,0.01,Wunderground v.1.15,2013-08-15 22:40:00,
2013-08-15 17:48:00,78.7,62.2,30.12,North,-999,0.0,0.0,57,0.00,,,-99.99,WeatherLink 6.0.3,2013-08-15 22:48:00,
2013-08-15 17:50:00,78.5,61.0,30.12,North,-999,0.0,0.0,55,0.00,,,-99.99,WeatherLink 6.0.3,2013-08-15 22:50:00,
2013-08-15 17:55:00,78.2,61.2,30.11,East,85,0.0,0.0,56,0.00,,,0.01,Wunderground v.1.15,2013-08-15 22:55:00,
2013-08-15 18:00:00,78.0,61.5,30.12,East,85,0.0,0.0,57,0.00,,,0.01,Wunderground v.1.15,2013-08-15 23:00:00,
2013-08-15 18:05:00,77.6,61.2,30.12,North,-999,0.0,0.0,57,0.00,,,-99.99,WeatherLink 6.0.3,2013-08-15 23:05:00,
2013-08-15 18:10:00,77.4,62.4,30.11,East,84,0.0,0.0,60,0.00,,,0.01,Wunderground v.1.15,2013-08-15 23:10:00,
2013-08-15 18:18:00,77.3,62.3,30.11,North,-999,0.0,0.0,60,0.00,,,-99.99,WeatherLink 6.0.3,2013-08-15 23:18:00,
2013-08-15 18:20:00,77.0,62.0,30.11,North,-999,0.0,0.0,60,0.00,,,-99.99,WeatherLink 6.0.3,2013-08-15 23:20:00,
2013-08-15 18:25:00,76.8,62.8,30.11,East,85,0.0,0.0,62,0.00,,,0.01,Wunderground v.1.15,2013-08-15 23:25:00,
2013-08-15 18:33:00,76.7,62.2,30.11,North,-999,0.0,0.0,61,0.00,,,-99.99,WeatherLink 6.0.3,2013-08-15 23:33:00,
2013-08-15 18:35:00,76.2,62.7,30.11,North,-999,0.0,0.0,63,0.00,,,-99.99,WeatherLink 6.0.3,2013-08-15 23:35:00,
2013-08-15 18:40:00,76.0,62.9,30.11,East,84,0.0,0.0,64,0.00,,,0.01,Wunderground v.1.15,2013-08-15 23:40:00,
2013-08-15 18:45:00,75.9,62.8,30.11,East,85,0.0,0.0,64,0.00,,,0.01,Wunderground v.1.15,2013-08-15 23:45:00,
2013-08-15 18:50:00,75.6,62.6,30.11,East,84,0.0,0.0,64,0.00,,,0.01,Wunderground v.1.15,2013-08-15 23:50:00,
2013-08-15 18:55:00,75.3,62.3,30.11,East,84,0.0,0.0,64,0.00,,,0.01,Wunderground v.1.15,2013-08-15 23:55:00,
2013-08-15 19:04:00,75.3,62.3,30.11,North,-999,0.0,0.0,64,0.00,,,-99.99,WeatherLink 6.0.3,2013-08-16 00:04:00,
2013-08-15 19:05:00,74.7,62.1,30.11,North,-999,0.0,0.0,65,0.00,,,-99.99,WeatherLink 6.0.3,2013-08-16 00:05:00,
2013-08-15 19:10:00,74.5,62.0,30.11,East,85,0.0,0.0,65,0.00,,,0.01,Wunderground v.1.15,2013-08-16 00:10:00,
2013-08-15 19:18:00,74.4,61.9,30.10,North,-999,0.0,0.0,65,0.00,,,-99.99,WeatherLink 6.0.3,2013-08-16 00:18:00,
2013-08-15 19:20:00,74.6,62.1,30.11,North,-999,0.0,0.0,65,0.00,,,-99.99,WeatherLink 6.0.3,2013-08-16 00:20:00,
2013-08-15 19:25:00,74.6,61.6,30.12,East,85,0.0,0.0,64,0.00,,,0.01,Wunderground v.1.15,2013-08-16 00:25:00,
2013-08-15 19:30:00,74.5,61.5,30.12,East,84,0.0,0.0,64,0.00,,,0.01,Wunderground v.1.15,2013-08-16 00:30:00,
2013-08-15 19:35:00,74.3,61.8,30.12,East,85,0.0,0.0,65,0.00,,,0.01,Wunderground v.1.15,2013-08-16 00:35:00,
2013-08-15 19:40:00,74.0,61.5,30.12,East,84,0.0,0.0,65,0.00,,,0.01,Wunderground v.1.15,2013-08-16 00:40:00,
2013-08-15 19:45:00,73.6,61.1,30.12,East,85,0.0,0.0,65,0.00,,,0.01,Wunderground v.1.15,2013-08-16 00:45:00,
2013-08-15 19:50:00,73.2,60.7,30.12,North,-999,0.0,0.0,65,0.00,,,-99.99,WeatherLink 6.0.3,2013-08-16 00:50:00,
2013-08-15 19:55:00,72.7,60.3,30.12,East,84,0.0,0.0,65,0.00,,,0.01,Wunderground v.1.15,2013-08-16 00:55:00,
2013-08-15 20:00:00,72.1,59.2,30.12,East,84,0.0,0.0,64,0.00,,,0.01,Wunderground v.1.15,2013-08-16 01:00:00,
2013-08-15 20:05:00,71.3,58.9,30.11,East,85,0.0,0.0,65,0.00,,,0.01,Wunderground v.1.15,2013-08-16 01:05:00,
2013-08-15 20:10:00,70.8,58.4,30.11,East,85,0.0,0.0,65,0.00,,,0.01,Wunderground v.1.15,2013-08-16 01:10:00,
2013-08-15 20:15:00,70.5,58.2,30.11,East,84,0.0,0.0,65,0.00,,,0.01,Wunderground v.1.15,2013-08-16 01:15:00,
2013-08-15 20:20:00,70.2,57.0,30.12,North,-999,0.0,0.0,63,0.00,,,-99.99,WeatherLink 6.0.3,2013-08-16 01:20:00,
2013-08-15 20:24:00,69.8,56.2,30.12,East,84,0.0,0.0,62,0.00,,,0.01,Wunderground v.1.15,2013-08-16 01:24:00,
2013-08-15 20:33:00,69.7,56.1,30.12,North,-999,0.0,0.0,62,0.00,,,-99.99,WeatherLink 6.0.3,2013-08-16 01:33:00,
2013-08-15 20:35:00,68.9,54.9,30.13,North,-999,0.0,0.0,61,0.00,,,-99.99,WeatherLink 6.0.3,2013-08-16 01:35:00,
2013-08-15 20:40:00,68.7,54.7,30.13,East,85,0.0,0.0,61,0.00,,,0.01,Wunderground v.1.15,2013-08-16 01:40:00,
2013-08-15 20:45:00,68.4,54.0,30.13,East,84,0.0,0.0,60,0.00,,,0.01,Wunderground v.1.15,2013-08-16 01:45:00,
2013-08-15 20:50:00,68.1,52.8,30.13,East,84,0.0,0.0,58,0.00,,,0.01,Wunderground v.1.15,2013-08-16 01:50:00,
2013-08-15 20:55:00,67.8,52.0,30.12,East,85,0.0,0.0,57,0.00,,,0.01,Wunderground v.1.15,2013-08-16 01:55:00,
2013-08-15 21:00:00,67.8,51.5,30.12,East,85,0.0,0.0,56,0.00,,,0.01,Wunderground v.1.15,2013-08-16 02:00:00,
2013-08-15 21:05:00,67.6,52.8,30.12,East,85,0.0,0.0,59,0.00,,,0.01,Wunderground v.1.15,2013-08-16 02:05:00,
2013-08-15 21:10:00,67.7,52.4,30.13,East,84,0.0,0.0,58,0.00,,,0.01,Wunderground v.1.15,2013-08-16 02:10:00,
2013-08-15 21:18:00,67.7,52.4,30.13,North,-999,0.0,0.0,58,0.00,,,-99.99,WeatherLink 6.0.3,2013-08-16 02:18:00,
2013-08-15 21:20:00,67.3,51.1,30.13,North,-999,0.0,0.0,56,0.00,,,-99.99,WeatherLink 6.0.3,2013-08-16 02:20:00,
2013-08-15 21:25:00,67.0,51.3,30.13,East,84,0.0,0.0,57,0.00,,,0.01,Wunderground v.1.15,2013-08-16 02:25:00,
2013-08-15 21:30:00,66.8,51.1,30.14,East,85,0.0,0.0,57,0.00,,,0.01,Wunderground v.1.15,2013-08-16 02:30:00,
2013-08-15 21:35:00,66.8,50.6,30.14,East,85,0.0,0.0,56,0.00,,,0.01,Wunderground v.1.15,2013-08-16 02:35:00,
2013-08-15 21:40:00,66.7,51.5,30.14,East,84,0.0,0.0,58,0.00,,,0.01,Wunderground v.1.15,2013-08-16 02:40:00,
2013-08-15 21:48:00,66.6,51.4,30.14,North,-999,0.0,0.0,58,0.00,,,-99.99,WeatherLink 6.0.3,2013-08-16 02:48:00,
2013-08-15 21:50:00,66.6,51.4,30.13,North,-999,0.0,0.0,58,0.00,,,-99.99,WeatherLink 6.0.3,2013-08-16 02:50:00,
2013-08-15 21:55:00,66.5,51.3,30.13,East,85,0.0,0.0,58,0.00,,,0.01,Wunderground v.1.15,2013-08-16 02:55:00,
2013-08-15 22:00:00,66.6,51.4,30.13,East,84,0.0,0.0,58,0.00,,,0.01,Wunderground v.1.15,2013-08-16 03:00:00,
2013-08-15 22:05:00,66.6,50.9,30.14,North,-999,0.0,0.0,57,0.00,,,-99.99,WeatherLink 6.0.3,2013-08-16 03:05:00,
2013-08-15 22:09:00,66.5,51.3,30.13,East,84,0.0,0.0,58,0.00,,,0.01,Wunderground v.1.15,2013-08-16 03:09:00,
2013-08-15 22:15:00,66.4,52.1,30.13,East,86,0.0,0.0,60,0.00,,,0.01,Wunderground v.1.15,2013-08-16 03:15:00,
2013-08-15 22:20:00,66.4,53.0,30.13,East,87,0.0,0.0,62,0.00,,,0.01,Wunderground v.1.15,2013-08-16 03:20:00,
2013-08-15 22:25:00,66.6,53.6,30.13,East,89,0.0,0.0,63,0.00,,,0.01,Wunderground v.1.15,2013-08-16 03:25:00,
2013-08-15 22:30:00,66.7,54.1,30.13,East,89,0.0,0.0,64,0.00,,,0.01,Wunderground v.1.15,2013-08-16 03:30:00,
2013-08-15 22:35:00,66.7,54.1,30.14,East,89,0.0,0.0,64,0.00,,,0.01,Wunderground v.1.15,2013-08-16 03:35:00,
2013-08-15 22:40:00,66.6,53.6,30.14,East,88,0.0,0.0,63,0.00,,,0.01,Wunderground v.1.15,2013-08-16 03:40:00,
2013-08-15 22:45:00,66.6,53.6,30.15,East,89,0.0,0.0,63,0.00,,,0.01,Wunderground v.1.15,2013-08-16 03:45:00,
2013-08-15 22:50:00,66.5,53.1,30.15,North,-999,0.0,0.0,62,0.00,,,-99.99,WeatherLink 6.0.3,2013-08-16 03:50:00,
2013-08-15 22:55:00,66.3,53.3,30.15,East,89,0.0,0.0,63,0.00,,,0.01,Wunderground v.1.15,2013-08-16 03:55:00,
2013-08-15 22:59:00,66.2,53.2,30.16,East,89,0.0,0.0,63,0.00,,,0.01,Wunderground v.1.15,2013-08-16 03:59:00,
2013-08-15 23:03:00,66.3,53.3,30.15,North,-999,0.0,0.0,63,0.00,,,-99.99,WeatherLink 6.0.3,2013-08-16 04:03:00,
2013-08-15 23:05:00,66.1,52.7,30.16,North,-999,0.0,0.0,62,0.00,,,-99.99,WeatherLink 6.0.3,2013-08-16 04:05:00,
2013-08-15 23:10:00,66.0,52.2,30.16,East,89,0.0,0.0,61,0.00,,,0.01,Wunderground v.1.15,2013-08-16 04:10:00,
2013-08-15 23:15:00,65.9,52.1,30.16,East,88,0.0,0.0,61,0.00,,,0.01,Wunderground v.1.15,2013-08-16 04:15:00,
2013-08-15 23:20:00,65.8,50.6,30.16,East,89,0.0,0.0,58,0.00,,,0.01,Wunderground v.1.15,2013-08-16 04:20:00,
2013-08-15 23:25:00,65.4,50.2,30.16,East,89,0.0,0.0,58,0.00,,,0.01,Wunderground v.1.15,2013-08-16 04:25:00,
2013-08-15 23:30:00,65.3,48.7,30.16,East,89,0.0,0.0,55,0.00,,,0.01,Wunderground v.1.15,2013-08-16 04:30:00,
2013-08-15 23:34:00,64.9,49.3,30.15,East,88,0.0,0.0,57,0.00,,,0.01,Wunderground v.1.15,2013-08-16 04:34:00,
2013-08-15 23:35:00,64.9,49.3,30.15,North,-999,0.0,0.0,57,0.00,,,-99.99,WeatherLink 6.0.3,2013-08-16 04:35:00,
2013-08-15 23:39:00,64.9,48.8,30.15,East,89,0.0,0.0,56,0.00,,,0.01,Wunderground v.1.15,2013-08-16 04:39:00,
2013-08-15 23:45:00,64.9,47.9,30.15,East,89,0.0,0.0,54,0.00,,,0.01,Wunderground v.1.15,2013-08-16 04:45:00,
2013-08-15 23:50:00,64.9,46.8,30.15,East,88,0.0,0.0,52,0.00,,,0.01,Wunderground v.1.15,2013-08-16 04:50:00,
2013-08-15 23:55:00,64.7,47.2,30.15,East,89,0.0,0.0,53,0.00,,,0.01,Wunderground v.1.15,2013-08-16 04:55:00,